{"data":{"norad_id":53918,"intl_designator":"2022-119AJ","name":"STARLINK-5012","alt_names":[],"object_type":"PAYLOAD","status":"ACTIVE","operator":null,"country":"US","launch_date":"2022-09-24","launch_site_code":"AFETR","launch_vehicle":null,"mission":null,"orbit_class":"UNKNOWN","rcs_meters":null,"size_class":null,"mass_kg":null,"dimensions":null,"purposes":["comms"],"wikipedia_slug":null,"has_3d_model":false,"image_url":null,"decayed_at":null,"tle_current":{"epoch":"2026-05-24T18:47:00.195360Z","epoch_age_seconds":87750,"freshness":"FRESH","line1":"1 53918U 22119AJ  26144.78264115  .00001055  00000+0  84299-4 0  9998","line2":"2 53918  53.2178 332.4287 0000151 194.6195 165.4793 15.08848136203313","mean_motion":15.08848136,"eccentricity":1.51e-5,"inclination_deg":53.2178,"raan_deg":332.4287,"arg_perigee_deg":194.6195,"mean_anomaly_deg":165.4793,"bstar":8.4299e-5,"rev_number":20331,"period_min":95.437040060074,"perigee_km":539.61406096035,"apogee_km":539.82298019707,"semimajor_km":6917.8555205787,"source":"CELESTRAK","updated_at":"2026-05-25T13:38:17.612760Z"}}}